Starlink 34837

operational
NORAD ID: 65423 Int'l Des: 2025-192 Owner: SPXS Country: US Constellation: starlink
LEOCIRCULAR

Starlink 34837について

説明を読み込み中...

リアルタイム位置

3D地球を読み込み中...

次回通過

高度履歴

Altitude vs Time

uPlot chart will show altitude changes over time

軌道要素

1 65423U 25192V 25341.28490896 .00094716 00000-0 23471-2 0 9996
2 65423 53.1598 307.4600 0001336 92.7088 267.4070 15.39638772 15159
Epoch: Dec 7, 2025 • Age: 19 hours

現在のステータス

高度 447.6 km
速度 7.64 km/s
衛星直下点 -0.28°S, 12.07°E
打ち上げ日 Aug 31, 2025
運用期間 0.2 years
タイプ internet

技術仕様

分類 Payload
質量 575.00 kg
乾燥質量 530.00 kg
総質量 575.00 kg
長さ 0.30 m
直径 4.10 m
スパン 29.00 m
形状 Box + pan
製造者 SPXS
バスタイプ Starlink V2MO
フェーズステータス In Orbit
所有者/国 SPXS/US

大規模コンステレーション

Loading constellations...